Wind_Gust
11 10 7 10 9 9 7 5 6 8 8 11 9 7 7 7 8 8 11 12 12 11 10 9 9 9 7 8 8 7 6 4 5 5 4 5 6 6 7 5 6 6 6 3 3 3 2 3 4 5 3 5 4 5 5 5 3 3 2 2 5 5 2 2 2 6 9 5 8 10 12 12 15 11 14 14 15 14 10 10 11 10 11 11 12
11 11 4 9 6 8 4 3 7 7 9 9 8 9 7 8 7 8 6 6 12 14 13 10 10 9 9 8 9 10 9 7 6 6 6 4 5 3 6 6 4 6 6 5 3 4 2 5 5 4 4 3 2 4 4 6 5 5 5 4 2 4 1 4 2 3 7 9 9 10 11 9 9 7 11 14 15 14 14 13 13 10 10 11 11
10 10 11 9 12 13 14 13 13 11 11 9 9 9 9 9 9 10 8 7 6 9 11 12 10 10 10 10 9 10 11 9 9 8 8 7 7 4 7 6 4 5 7 6 6 5 3 2 2 4 4 3 2 4 4 6 4 7 7 6 8 9 12 10 7 5 6 8 5 7 7 8 8 11 12 11 11 11 11 11 12 12 10 9 11
6 4 11 14 10 11 11 11 12 11 10 8 9 8 7 7 7 6 4 6 10 6 6 3 4 6 10 10 10 10 11 11 10 11 10 9 9 7 7 7 5 6 7 5 5 6 6 4 2 5 4 3 1 2 5 4 7 6 7 6 6 6 4 4 4 3 4 7 6 7 8 9 10 9 10 10 11 12 10 12 10 10 8 8 6
12 10 11 10 12 12 6 8 16 14 14 12 10 7 7 9 8 6 5 4 4 5 7 11 11 7 8 10 11 10 12 13 14 13 12 11 12 11 10 8 6 7 7 6 6 7 5 6 4 3 5 3 1 2 2 5 5 6 6 6 7 7 8 8 7 5 5 6 9 7 6 8 9 10 10 13 12 12 11 13 13 13 12 11 10
9 9 9 8 6 5 2 2 3 6 9 7 7 7 7 11 13 9 10 9 7 8 7 7 9 13 9 6 7 10 5 7 4 9 13 14 12 13 13 10 8 7 7 6 5 6 6 6 2 5 3 4 2 2 5 5 6 6 7 7 7 7 6 7 7 7 6 6 5 11 5 10 10 11 10 10 10 12 12 12 8 8 9 12 11
9 9 8 7 6 4 3 3 5 5 8 7 5 6 8 9 13 16 14 13 15 11 9 10 14 14 11 5 3 9 11 12 11 11 11 11 12 13 13 12 10 9 8 7 7 6 6 4 3 3 4 3 5 6 5 5 6 5 5 5 5 6 7 7 8 8 7 7 6 5 9 8 7 9 9 10 13 11 10 12 12 12 10 7 10
9 10 10 9 7 6 5 5 6 6 4 3 4 6 7 8 8 6 7 9 9 11 13 14 13 9 6 5 6 8 9 9 11 13 11 10 10 13 15 15 14 12 10 10 10 9 7 5 6 5 7 7 7 5 6 3 3 3 4 5 6 6 6 7 8 8 8 8 6 8 6 8 12 8 9 10 12 13 15 12 13 13 15 15 12
7 7 7 7 7 6 5 3 3 3 4 4 6 10 12 13 12 11 10 11 10 9 7 8 9 8 5 7 6 6 9 11 11 13 15 13 10 13 15 17 16 13 11 10 9 10 8 7 6 7 8 10 8 6 5 4 2 1 3 5 4 4 4 5 6 7 8 8 11 9 10 11 10 10 13 10 10 12 11 11 12 12 13 15 16
8 8 7 7 7 6 7 6 6 5 4 4 5 5 8 11 11 10 11 11 11 9 8 8 8 10 9 8 9 10 11 10 11 15 13 11 8 12 14 16 15 14 13 11 9 9 9 8 8 11 12 11 10 9 8 6 3 4 3 1 1 2 2 3 5 7 6 9 9 9 10 11 10 8 8 8 11 11 15 15 16 16 15 12 9
5 5 6 6 7 6 6 7 6 6 5 5 6 6 7 8 9 10 10 9 10 10 10 10 12 12 11 10 9 10 11 13 15 17 17 14 12 9 11 11 12 13 14 14 13 11 9 9 9 11 11 7 9 9 8 7 7 6 4 4 4 3 1 3 6 5 8 8 9 9 9 10 9 8 9 14 11 8 8 10 12 12 13 14 19
2 1 2 2 2 2 6 6 7 7 8 10 10 10 9 8 9 11 12 10 11 10 11 13 12 11 12 11 11 11 10 9 14 13 14 14 13 15 14 14 13 14 14 14 13 11 10 9 9 9 8 9 8 7 6 9 9 9 8 7 7 5 4 4 6 7 6 9 10 10 9 11 12 10 11 7 10 13 13 12 9 7 11 12 14
5 5 3 3 3 2 1 1 2 3 2 3 4 6 6 6 6 3 5 12 12 12 13 12 12 12 11 10 12 8 7 10 14 15 14 14 17 16 14 15 16 13 13 12 11 10 9 8 10 9 9 10 8 6 7 8 9 11 7 4 4 5 7 9 8 10 7 8 10 12 11 11 12 11 6 9 10 14 11 11 9 10 10 14 14
2 3 2 1 1 2 2 1 1 2 4 6 5 5 5 4 2 3 4 5 3 8 11 13 11 9 11 12 12 8 7 8 11 13 13 14 16 14 9 10 9 10 11 12 11 10 9 10 10 10 7 8 7 8 8 9 9 6 6 6 6 7 8 11 13 14 13 13 11 15 14 9 16 13 12 11 13 15 14 14 7 11 14 19 15
3 4 2 1 1 1 1 1 4 3 4 5 5 3 2 2 4 6 6 5 3 5 4 4 7 7 7 8 7 6 4 3 5 8 9 13 14 12 10 9 10 8 7 8 9 8 8 8 8 8 7 7 7 7 8 8 6 7 6 7 8 8 7 6 5 6 7 10 13 15 16 14 15 16 15 13 14 16 15 14 12 14 17 15 15
3 2 3 2 1 1 1 2 2 3 3 3 3 3 3 2 3 5 4 6 8 5 3 2 4 5 5 7 8 5 3 5 8 13 15 16 15 12 12 13 13 13 7 7 7 8 7 7 6 4 4 5 8 10 10 8 8 8 8 7 7 6 6 6 8 8 8 9 11 12 12 11 11 13 13 13 11 10 13 13 10 11 15 18 22
3 1 3 2 4 6 3 3 3 3 2 2 2 2 1 2 4 3 4 6 7 7 8 5 4 5 4 8 9 6 5 6 8 11 14 16 13 11 11 11 11 9 7 6 6 6 4 4 4 5 6 6 9 11 7 5 3 3 3 4 4 3 7 6 7 8 10 9 7 6 6 7 9 10 11 12 12 10 8 11 14 10 15 19 19
7 7 7 6 6 5 3 4 4 5 3 3 2 1 1 2 3 4 4 6 7 8 8 7 3 2 8 10 11 10 6 6 9 10 12 12 9 12 10 11 8 7 5 5 6 6 6 10 11 6 3 7 11 12 11 7 7 6 6 5 5 6 6 6 7 8 11 12 13 14 15 16 17 17 15 13 13 10 11 17 12 9 16 13 23
6 2 2 2 2 2 2 1 2 3 2 1 1 2 3 4 5 4 6 6 8 9 10 4 9 7 8 12 14 16 10 7 9 12 12 11 10 8 10 9 8 4 4 2 2 7 15 15 16 14 12 11 13 12 13 9 7 7 6 6 7 7 8 4 6 9 10 12 12 14 15 14 16 15 16 17 17 14 13 14 9 10 16 13 14
8 7 4 3 3 3 3 3 3 3 4 6 6 7 6 3 3 4 6 6 10 5 4 9 11 8 8 13 13 16 16 9 8 13 12 12 10 12 9 11 9 8 8 9 9 9 11 11 12 13 14 12 10 10 9 8 4 2 2 3 6 12 5 4 6 7 8 8 10 9 12 10 11 10 10 11 13 10 12 11 10 11 14 15 14
8 7 6 4 3 3 4 4 6 7 8 9 8 6 5 5 2 3 6 7 4 6 7 8 12 8 8 7 12 10 15 15 8 13 13 13 14 13 11 11 9 9 8 8 7 8 9 9 7 8 11 10 8 6 5 3 3 2 3 6 8 8 5 7 9 8 8 8 9 9 10 9 8 9 9 10 10 10 10 9 10 11 14 16 17
10 9 8 7 6 6 6 6 5 7 6 6 5 7 6 5 3 3 4 4 4 8 6 8 11 10 8 8 7 10 9 13 14 12 15 14 13 13 12 9 7 9 9 8 7 8 8 9 7 6 7 8 7 5 4 4 5 4 8 9 11 12 13 8 8 7 9 10 10 11 11 10 10 10 10 10 11 12 12 12 11 11 11 13 17
6 6 6 6 6 6 6 6 5 4 5 5 6 7 6 4 3 2 5 4 9 8 9 9 10 11 10 9 8 8 8 7 11 12 12 15 14 13 11 9 8 10 10 8 7 7 7 9 6 6 5 5 6 7 7 8 6 7 10 12 13 14 10 8 8 9 9 10 10 11 11 11 10 11 11 11 12 11 11 11 11 11 11 11 12
5 4 4 4 5 5 5 6 6 5 8 9 7 8 8 7 7 7 3 9 11 10 9 11 11 11 11 10 8 7 6 7 6 11 12 13 11 11 9 9 9 7 8 7 7 9 8 3 2 3 5 7 7 7 8 7 8 10 11 12 13 10 8 9 8 10 9 10 11 11 12 12 12 12 13 13 13 12 13 11 12 13 16 17 16
7 7 8 8 9 10 8 9 10 10 10 9 9 8 8 9 7 4 11 11 11 12 10 10 12 12 12 11 10 8 6 7 5 6 9 10 11 11 11 11 11 10 9 8 7 7 6 5 5 7 8 10 11 9 7 7 12 11 10 11 9 6 8 8 10 9 9 10 11 12 12 11 12 14 12 11 11 12 13 13 13 14 15 17 17
8 8 8 7 9 9 9 7 6 6 6 8 9 8 8 8 11 9 12 12 12 13 11 10 11 12 12 12 12 10 8 7 7 6 5 5 6 9 8 10 10 9 6 5 6 8 8 9 10 9 9 10 9 6 6 8 6 8 11 10 5 7 7 8 9 9 11 11 10 11 10 9 9 9 10 12 12 13 13 14 13 13 12 15 16
6 5 8 10 8 7 6 8 8 11 12 3 5 11 10 9 9 8 9 12 11 12 12 11 10 10 13 12 11 10 9 8 8 7 5 6 7 6 6 7 7 6 6 7 6 6 9 8 8 10 10 13 11 8 8 8 8 9 7 6 4 6 7 8 9 11 11 12 11 11 11 11 11 12 11 9 11 10 8 12 14 14 13 14 16
11 10 9 7 6 5 6 7 11 5 9 9 9 7 7 8 11 11 12 12 13 11 12 12 13 14 14 14 13 11 10 9 8 7 5 7 7 8 8 10 9 8 7 4 4 6 6 6 8 8 7 8 8 7 4 4 2 3 5 5 5 6 7 8 9 10 11 12 14 14 13 12 13 12 12 12 13 13 12 14 14 16 13 14 19
11 10 11 9 9 7 10 10 8 10 12 13 12 9 7 8 7 6 3 4 14 15 14 12 10 7 11 14 14 11 11 10 5 3 8 7 11 11 8 8 8 8 5 2 3 2 4 8 9 8 6 6 8 7 6 6 8 8 8 8 9 9 10 10 11 12 13 13 14 13 14 13 13 11 13 14 15 15 12 15 15 17 16 14 18
9 10 11 12 12 14 14 16 7 13 13 14 14 13 13 15 11 4 2 6 8 10 10 12 13 13 13 7 9 16 14 11 7 12 13 12 12 12 9 8 7 7 3 2 4 5 4 5 4 3 7 8 7 7 7 7 8 9 8 7 9 9 10 9 11 12 10 11 12 12 14 14 15 15 15 15 16 15 14 13 18 15 17 16 18
11 10 9 9 10 8 7 5 11 11 12 13 13 14 13 18 20 18 10 11 15 17 16 16 16 14 20 16 16 19 18 14 12 13 13 12 12 12 10 7 7 6 4 6 6 5 4 4 3 6 4 7 6 6 6 8 9 9 10 9 9 10 9 10 11 10 10 12 13 13 14 14 15 14 15 16 16 17 16 14 15 15 17 17 18
12 11 11 10 12 10 7 11 14 14 12 11 13 15 16 17 16 17 17 16 19 21 21 20 20 21 23 24 17 12 11 12 13 12 11 10 9 8 7 6 6 5 4 4 5 5 2 1 4 4 5 5 6 7 8 8 8 8 9 9 10 9 11 13 13 13 14 14 15 15 15 15 15 16 16 16 16 17 17 17 16 16 16 16 18
12 10 10 11 10 8 6 12 13 16 16 15 13 15 17 18 20 15 17 17 20 18 17 20 22 22 20 18 18 15 12 11 12 10 10 10 9 7 5 5 6 6 4 4 2 3 2 3 4 4 4 5 5 5 7 8 8 9 9 9 13 13 13 13 13 15 15 16 16 16 16 16 16 16 16 16 16 18 16 17 16 16 16 17 18
10 7 9 11 12 8 10 12 13 13 14 15 16 15 15 18 19 19 20 17 20 17 14 14 17 18 16 16 15 15 14 13 11 11 10 9 7 6 4 2 4 6 6 2 1 2 2 3 4 5 4 4 4 6 8 8 8 7 9 9 10 12 14 13 14 15 15 16 16 16 16 16 15 17 17 17 16 17 18 17 16 17 17 17 17
14 11 11 8 10 12 13 14 14 12 14 16 16 17 17 16 19 19 19 20 18 17 12 10 8 11 17 12 12 14 13 11 11 10 9 8 7 6 4 1 2 2 2 2 2 4 2 4 5 5 4 5 4 5 7 7 9 8 9 11 13 14 14 15 16 15 16 16 17 17 16 17 17 17 18 19 18 18 18 17 16 16 18 17 17
9 8 9 10 8 11 12 15 16 18 17 15 14 14 14 15 16 16 16 15 17 16 12 8 7 6 10 9 10 9 11 11 10 9 8 7 3 4 3 2 6 2 4 4 6 4 5 6 5 4 3 4 5 8 7 8 9 9 9 11 14 15 16 17 17 17 17 18 18 18 17 18 17 17 17 18 18 19 18 17 17 16 17 18 16
16 13 10 9 9 10 13 14 12 13 11 14 15 15 14 15 15 16 15 17 15 13 14 10 10 8 7 5 4 7 9 8 8 6 5 3 2 4 1 2 2 2 7 5 5 5 6 3 4 4 4 6 7 6 7 8 9 10 10 12 13 16 17 17 19 18 19 19 19 18 18 19 18 17 18 19 19 18 18 17 17 18 17 18 15
16 17 13 14 17 17 16 16 17 15 17 17 17 18 16 15 14 14 16 15 15 14 13 9 7 11 12 7 4 4 6 6 6 6 5 4 3 4 4 4 3 6 9 6 5 6 5 4 5 5 5 8 7 7 7 9 10 11 13 14 15 16 18 22 19 18 17 18 19 18 18 18 18 18 17 18 19 19 19 18 18 18 17 17 16
14 17 19 19 16 19 19 20 20 21 19 17 16 16 17 16 13 14 15 13 13 12 10 10 9 8 8 7 6 3 6 2 2 4 6 8 6 3 3 5 4 11 7 6 5 7 8 6 4 5 7 7 5 7 8 10 10 12 14 16 18 17 18 18 19 19 18 18 19 18 18 19 18 18 17 18 18 18 18 18 17 17 18 17 16
15 17 19 21 18 20 18 18 21 21 21 21 18 15 12 13 13 14 13 13 12 11 10 9 8 8 6 7 6 7 5 5 6 8 6 3 2 3 5 7 13 10 8 5 9 7 8 5 5 7 6 5 7 9 9 10 11 12 14 15 18 19 19 18 19 20 20 19 19 19 19 19 18 17 17 17 18 17 17 18 17 17 17 16 16
18 19 15 17 20 21 19 19 19 19 19 18 16 14 12 12 11 10 10 10 10 9 7 6 5 3 4 8 8 9 10 10 5 4 4 9 10 10 14 11 10 9 6 7 8 9 6 8 7 7 6 7 8 9 10 10 12 12 15 16 17 18 19 19 19 19 20 19 19 19 19 18 18 17 18 17 13 16 17 17 17 17 17 16 16
23 22 22 20 21 22 21 19 18 19 17 15 13 12 10 11 11 9 10 9 9 10 10 7 7 6 6 9 10 9 6 4 11 10 7 8 12 12 9 8 8 7 8 8 9 9 8 8 8 7 8 9 9 10 10 11 11 13 15 17 18 19 19 19 19 19 19 20 19 19 18 18 19 18 19 13 18 17 17 16 16 15 15 15 14
26 25 24 22 21 20 20 18 17 19 17 14 11 7 9 10 9 11 12 12 12 12 11 9 7 7 6 5 7 8 11 11 7 10 12 14 14 12 10 9 8 6 6 9 8 7 7 7 8 7 8 10 10 11 12 13 13 14 14 16 17 19 19 19 18 18 18 18 19 19 19 18 18 16 16 15 16 15 15 16 15 14 14 13 12
19 19 18 18 17 15 11 11 12 11 8 8 8 9 9 9 10 10 13 14 13 11 10 9 8 8 6 4 5 10 11 12 12 13 12 12 12 11 8 9 9 10 9 6 7 7 7 7 7 9 8 10 11 11 12 12 12 13 14 15 17 19 19 19 19 19 18 18 19 19 18 17 17 16 15 15 14 14 14 13 13 12 12 10 9
16 16 14 14 13 13 13 12 12 13 15 14 12 13 13 14 12 12 13 13 11 9 8 9 9 8 8 9 9 12 12 11 10 10 12 13 10 9 8 8 9 9 9 7 6 8 7 7 6 7 10 12 12 12 12 12 11 12 11 12 15 17 19 19 19 19 18 18 18 17 16 15 16 15 15 14 13 12 12 11 11 8 8 7 8
18 18 17 16 15 15 16 16 14 16 15 13 14 13 12 13 12 12 11 11 10 10 10 10 11 10 10 11 12 12 10 11 13 14 13 12 10 9 9 10 9 8 9 8 5 7 7 8 9 9 11 13 14 13 11 10 11 11 11 9 12 15 16 17 17 18 17 16 16 16 16 15 15 14 13 15 12 11 10 9 8 7 6 6 5
17 17 17 17 18 18 17 16 16 15 15 14 13 13 12 12 12 12 11 13 13 12 12 12 11 11 10 9 10 9 10 13 13 12 11 10 10 10 9 8 8 9 9 9 4 4 4 7 9 9 11 13 13 12 11 11 11 11 11 12 11 15 16 17 18 16 15 15 14 14 15 15 15 14 15 13 10 10 9 8 7 8 7 4 4
16 16 16 16 17 17 16 15 17 13 16 15 14 13 12 12 13 12 12 13 13 13 12 12 11 12 13 11 10 11 13 14 13 12 11 10 9 10 8 6 8 9 8 8 9 8 6 8 9 10 12 12 12 10 10 12 12 13 13 13 13 16 22 20 17 15 15 15 14 13 14 15 14 13 13 12 11 10 9 8 8 7 4 4 2
17 17 16 16 15 15 14 15 14 15 14 14 15 16 14 15 14 14 14 14 14 12 11 10 11 12 12 11 11 12 13 12 11 10 10 9 8 8 9 8 7 9 7 8 10 9 9 9 10 11 12 11 9 9 12 13 14 14 15 14 18 22 22 23 19 18 18 16 14 15 14 14 14 13 13 12 12 10 8 8 7 7 6 5 5
16 16 16 16 16 15 14 14 14 14 14 15 15 14 14 14 14 13 13 14 14 13 13 12 12 10 10 11 12 12 12 11 10 9 9 9 9 10 9 8 7 8 8 7 9 9 9 10 10 11 12 9 7 10 12 14 13 15 15 18 20 22 22 23 21 20 19 14 14 13 14 13 13 13 12 11 11 11 10 9 8 7 7 7 7
16 16 15 15 15 14 15 16 16 16 15 14 14 13 14 13 12 13 13 13 13 12 12 12 12 12 11 11 10 11 10 10 9 9 9 10 9 9 7 6 7 6 6 8 9 10 11 11 12 12 11 5 8 12 14 15 14 17 17 19 21 22 23 21 20 18 20 14 13 14 14 14 13 14 13 13 11 10 10 9 9 8 8 8 7
Wind_Speed
6 7 4 2 6 6 5 4 4 4 5 7 5 4 4 5 5 5 7 7 7 7 6 6 6 6 5 5 5 4 4 3 2 3 2 2 2 4 4 3 4 4 3 1 1 1 1 1 1 1 2 3 3 3 3 3 2 2 1 1 2 2 1 1 1 4 4 2 4 5 7 7 8 6 8 8 9 8 8 6 7 5 5 5 5
2 4 2 1 2 5 3 3 3 4 6 5 5 5 5 5 4 4 4 4 8 9 8 7 7 6 5 5 6 6 5 5 4 4 3 3 3 2 3 2 2 3 4 4 2 2 1 3 3 2 3 2 2 3 3 4 3 3 3 3 2 3 0 1 1 0 4 5 5 6 5 4 4 5 7 9 9 8 8 7 7 6 6 7 6
4 2 3 6 7 8 8 7 7 7 7 6 6 6 5 6 6 6 4 4 2 5 7 8 7 6 6 6 5 6 6 5 5 5 5 4 5 3 4 4 3 3 4 4 4 3 2 1 2 2 1 2 1 3 3 4 3 4 4 3 4 4 5 5 3 2 3 3 3 4 4 4 4 6 6 6 7 6 6 6 6 6 5 5 6
4 2 2 5 4 7 7 7 8 6 6 5 5 4 4 4 4 4 3 1 1 2 3 3 2 3 6 7 7 6 7 7 6 7 7 6 6 5 5 5 4 4 4 4 4 3 4 2 1 3 2 2 1 1 3 3 4 4 4 4 4 4 3 2 2 0 1 3 2 3 3 5 4 4 5 6 6 7 6 6 6 6 5 5 4
7 6 7 3 2 7 3 0 5 8 9 8 6 4 5 6 4 3 3 1 3 2 2 4 3 1 5 7 7 7 8 9 9 8 7 7 8 7 6 5 4 4 5 4 4 4 4 4 3 2 3 2 0 1 1 4 3 4 4 4 4 4 4 5 4 3 3 3 4 3 3 3 4 5 6 6 6 6 5 6 6 7 7 6 5
5 5 5 4 3 3 1 1 2 2 3 2 3 4 4 7 8 6 4 4 3 5 4 5 5 6 4 3 4 5 3 4 2 4 7 9 8 8 8 7 5 5 4 4 3 4 4 4 2 3 2 2 1 1 3 3 4 4 4 4 4 4 4 4 4 4 4 3 3 5 4 5 5 4 5 5 6 7 7 6 5 4 5 7 6
5 6 5 5 4 3 3 2 3 3 3 4 3 1 2 3 7 8 6 7 9 8 5 3 3 3 3 3 2 6 5 5 6 5 4 5 7 8 8 8 7 6 5 5 5 4 4 3 2 2 2 2 3 3 3 3 3 3 3 3 3 4 4 4 5 5 4 4 3 3 5 4 3 4 5 6 6 4 5 7 7 6 6 4 6
6 6 6 6 4 4 4 4 4 4 3 2 2 2 2 1 2 2 4 6 5 5 6 5 4 4 4 3 4 5 5 5 4 5 3 2 4 7 9 9 8 7 7 6 6 6 5 4 4 3 4 4 5 3 3 2 2 2 2 3 3 3 3 3 4 4 5 4 3 4 3 4 6 4 4 6 7 7 7 6 7 7 8 8 7
4 5 5 4 4 4 4 3 2 3 3 3 4 3 4 4 5 5 5 6 6 6 4 4 5 5 3 3 3 4 5 5 6 6 6 6 5 7 9 10 9 8 7 6 6 6 5 5 4 4 5 7 7 5 4 4 1 0 1 2 2 2 2 2 2 3 4 4 6 4 5 6 5 6 7 5 5 5 4 5 5 6 7 7 8
4 4 5 5 4 4 4 4 4 3 3 3 3 3 5 6 6 6 7 7 6 5 4 4 5 6 5 4 5 6 6 6 8 13 9 7 6 5 5 8 9 8 8 7 6 6 6 5 5 10 10 9 8 8 7 5 3 2 1 0 1 1 1 1 3 3 3 5 4 4 6 6 5 4 4 4 5 5 7 7 8 8 7 7 5
4 4 4 4 4 4 4 5 4 4 4 3 3 4 4 5 5 6 5 5 5 5 4 5 6 6 5 5 5 6 6 7 14 15 15 12 6 5 6 6 7 8 8 8 8 7 6 6 6 8 8 6 6 8 7 6 5 5 4 4 4 2 0 2 4 3 3 3 4 4 4 6 5 4 4 6 4 4 4 5 5 5 5 6 8
1 0 1 1 1 2 4 4 4 4 4 5 4 4 4 4 4 5 4 4 5 4 4 6 6 6 6 7 7 7 6 8 12 11 11 11 9 7 7 8 7 8 8 8 7 7 6 5 5 5 5 6 5 4 4 7 8 7 6 5 5 3 2 2 3 3 3 5 6 5 4 6 6 5 6 3 5 6 6 6 5 4 6 5 5
2 2 2 3 3 2 0 0 1 1 0 2 3 2 2 1 1 1 4 7 6 5 8 7 7 7 7 7 6 5 4 7 9 10 11 12 12 11 7 9 9 8 8 7 6 6 6 5 5 5 4 8 5 4 4 4 7 8 5 3 3 4 6 6 6 5 4 4 6 7 6 5 7 5 3 4 4 7 6 6 4 4 4 6 6
1 3 1 0 1 1 1 1 1 2 3 4 4 3 3 2 1 2 3 2 2 6 7 8 7 6 6 6 5 3 4 6 8 11 11 11 12 12 6 6 6 6 7 7 6 6 6 6 6 5 4 4 4 5 4 4 4 4 4 4 4 5 6 8 9 10 7 6 6 8 8 4 8 7 7 6 7 8 7 8 4 5 7 9 8
2 2 1 0 0 0 0 1 3 2 3 4 4 3 1 2 3 4 4 3 2 3 3 3 5 5 5 5 4 3 1 3 4 4 5 8 10 8 6 5 6 5 4 5 6 4 5 5 5 5 4 4 3 5 5 5 4 4 4 4 5 5 4 4 3 3 4 4 6 8 9 8 8 8 8 7 7 8 8 8 6 6 8 7 6
2 2 2 2 0 1 1 1 2 2 2 2 2 1 1 1 2 3 2 4 5 3 2 1 3 4 2 4 5 4 1 5 7 10 12 12 11 7 6 7 7 7 5 4 5 5 5 4 4 3 3 3 6 9 8 4 5 5 5 4 4 4 4 4 6 5 5 5 4 4 5 5 7 6 6 6 6 5 6 7 6 6 8 9 10
3 1 2 2 2 3 2 2 2 2 1 1 1 1 0 1 3 1 3 4 4 4 5 4 3 3 3 4 5 3 3 5 7 10 11 12 9 6 6 7 6 6 4 4 4 4 3 3 2 3 3 3 6 7 1 1 2 1 1 2 3 2 4 4 4 6 8 8 5 4 5 7 8 9 9 9 6 4 4 5 6 5 7 9 9
4 4 5 4 4 4 2 2 2 2 2 2 1 0 0 0 1 1 2 4 5 5 5 5 1 1 5 5 6 6 4 5 8 9 10 10 8 7 6 7 5 4 4 3 4 3 2 1 1 1 2 4 9 10 8 5 4 4 4 3 3 4 4 3 3 4 8 10 11 12 12 13 14 15 13 11 11 8 7 9 6 5 8 6 9
4 2 1 0 0 1 1 0 1 2 2 1 1 1 1 2 2 1 3 3 4 5 6 0 3 2 4 6 9 9 6 5 8 10 10 9 7 5 6 6 5 3 3 1 2 4 8 10 11 9 8 7 11 11 10 7 4 3 2 3 3 4 5 2 3 4 5 6 6 7 7 9 8 7 8 13 13 11 7 8 5 6 8 7 7
5 5 3 2 2 2 2 2 2 2 3 4 4 4 4 1 1 1 3 3 4 3 2 4 4 3 3 6 6 7 9 5 5 11 11 11 9 6 5 6 6 5 5 5 4 5 6 6 7 11 11 10 9 9 7 6 3 1 1 1 4 7 3 2 3 4 4 4 5 5 6 6 6 6 5 6 7 5 7 6 6 6 7 8 7
5 5 4 3 2 2 3 3 4 4 5 5 5 4 3 3 1 0 2 4 2 3 4 4 6 4 4 3 5 4 7 9 5 11 11 12 12 10 6 6 5 6 5 5 4 5 5 5 4 6 9 8 7 5 4 3 3 1 2 3 3 4 4 3 5 6 4 4 5 5 6 5 5 5 6 6 6 6 6 5 6 6 6 7 8
5 6 5 5 5 4 5 4 4 4 4 4 4 4 4 3 2 1 0 2 2 5 4 4 6 5 4 4 3 4 4 8 8 10 13 12 12 11 7 4 3 5 5 5 4 5 4 4 3 3 6 7 6 5 4 3 4 2 4 8 10 10 7 4 5 4 5 6 6 7 7 6 6 6 6 6 6 7 6 6 6 6 6 7 8
4 4 4 4 4 4 4 4 4 3 3 3 4 5 4 3 2 1 0 2 5 5 5 5 6 6 5 5 4 4 4 4 8 8 11 12 12 11 10 6 6 6 5 5 4 4 4 5 3 5 5 4 5 5 6 7 5 4 9 9 10 11 8 5 5 5 6 6 6 7 7 6 6 6 6 6 7 7 7 6 6 6 6 6 7
4 3 2 3 3 3 3 4 4 4 4 5 5 5 5 5 4 4 2 5 6 6 5 6 6 6 6 5 4 4 3 4 5 7 8 11 10 9 8 8 7 4 5 4 5 5 4 2 0 2 4 6 6 6 7 6 5 8 8 10 11 8 4 5 5 6 5 6 6 6 6 6 6 6 6 7 7 7 7 7 6 7 8 8 9
4 5 5 5 5 5 5 5 5 5 6 6 6 5 5 5 4 3 6 6 7 7 6 6 7 6 7 6 6 5 3 4 3 4 8 9 10 9 9 10 10 9 5 5 4 3 2 1 5 6 7 7 7 5 4 5 8 7 7 8 7 3 4 4 6 5 5 6 6 6 6 6 6 7 6 6 7 6 6 6 7 7 8 9 9
4 5 5 5 6 5 5 5 5 5 5 5 6 5 5 5 6 6 7 7 7 8 7 6 6 6 6 6 6 6 5 3 3 3 4 4 5 8 8 9 9 8 5 4 5 6 6 8 8 8 8 7 5 4 4 4 5 7 9 8 3 3 3 3 4 5 5 5 5 6 5 5 5 5 5 5 5 6 6 7 6 6 6 7 7
5 4 4 4 5 4 4 4 5 6 5 1 3 5 6 6 5 4 6 7 6 7 7 7 6 6 7 6 6 6 5 5 4 3 3 4 4 4 4 5 6 5 4 4 4 4 5 5 6 7 7 9 6 5 5 5 3 4 3 3 2 2 3 3 4 5 6 6 6 6 6 6 6 5 6 5 6 6 5 7 7 7 6 7 8
5 6 6 5 4 4 4 4 4 0 5 5 5 4 4 4 7 7 7 7 7 6 7 7 7 7 7 7 6 6 5 5 4 4 3 4 4 4 5 6 5 4 3 2 2 2 3 4 5 3 3 5 5 4 3 2 1 1 2 2 3 4 5 7 7 6 6 6 6 6 6 5 6 6 6 5 6 6 6 7 7 8 7 7 8
4 5 6 5 6 4 5 5 4 5 6 6 5 4 2 3 4 4 0 3 8 9 8 7 6 5 7 8 8 6 6 6 3 3 5 6 7 6 5 5 4 3 3 2 1 1 2 5 5 4 4 4 5 4 4 4 4 4 4 5 5 6 6 5 6 6 7 6 6 6 7 7 7 6 6 7 7 7 5 7 7 8 8 7 9
6 5 5 7 7 6 6 7 3 7 7 7 8 6 9 11 6 3 1 4 5 8 9 7 8 7 7 3 3 9 7 5 6 10 11 10 10 10 8 7 6 5 3 2 2 3 3 3 2 2 4 4 4 4 4 4 5 6 5 6 6 6 6 6 6 6 6 6 6 6 7 7 8 7 7 8 7 6 6 7 8 8 8 8 9
6 6 5 6 7 5 4 3 6 5 5 6 7 8 6 10 15 14 7 7 10 11 10 13 13 12 12 7 8 14 14 12 10 11 11 10 10 10 8 6 6 5 3 3 3 3 3 2 2 3 3 3 2 3 4 5 5 6 6 6 5 5 5 6 6 6 6 7 7 7 7 7 8 7 8 8 8 8 8 7 7 8 8 9 9
6 6 7 6 7 7 4 6 7 8 6 5 6 8 8 8 9 14 14 12 13 14 14 14 14 16 18 17 11 6 8 10 11 10 9 9 8 7 6 6 5 4 4 4 3 3 1 1 2 2 1 3 3 3 4 4 5 5 5 5 6 6 6 7 7 7 7 7 8 8 8 8 8 8 8 8 8 8 8 8 8 8 8 8 9
6 6 6 7 7 5 4 7 8 8 8 7 7 7 9 9 10 7 9 13 15 14 14 16 16 16 15 13 14 12 10 8 9 9 9 9 8 6 5 5 5 5 4 3 1 2 1 1 2 1 2 3 3 3 3 4 4 5 6 5 6 6 6 7 7 8 8 8 8 8 8 8 8 8 8 8 8 8 8 8 8 8 8 9 9
7 4 4 5 7 5 5 7 7 7 7 8 8 8 8 10 10 11 10 8 9 11 11 10 14 15 13 14 12 12 11 11 9 9 9 8 6 5 4 1 1 5 5 1 0 0 0 1 1 2 2 2 1 3 4 4 5 4 5 5 6 6 7 6 7 8 8 8 8 8 8 8 8 8 9 8 8 8 9 8 8 8 8 8 9
8 9 10 6 4 5 6 8 8 7 7 8 8 9 9 9 11 10 10 10 9 8 6 3 4 10 11 9 10 12 11 10 9 8 8 7 6 5 4 1 1 0 1 1 2 2 1 1 3 1 2 3 3 3 4 4 5 5 5 6 6 7 7 7 8 8 8 8 9 9 9 9 9 9 9 9 9 8 8 9 8 8 9 9 8
5 4 4 6 5 5 6 8 9 10 9 7 7 8 8 8 8 8 9 9 9 9 6 4 3 5 9 8 9 8 9 9 9 8 7 6 3 3 1 1 4 1 1 2 3 3 2 3 3 3 2 2 3 4 4 5 5 6 6 6 7 7 7 8 8 9 9 9 9 10 10 9 9 9 9 9 10 10 9 9 9 8 9 9 8
9 7 7 4 4 5 6 8 7 8 7 8 8 8 8 9 8 8 8 9 8 7 7 6 5 5 5 3 4 7 7 7 7 6 4 3 2 3 0 0 1 1 4 3 3 3 3 2 3 2 3 4 4 4 4 5 5 6 6 7 7 8 8 8 9 9 9 9 9 9 9 9 9 9 9 9 9 9 9 9 9 9 9 10 10
9 9 7 6 7 8 7 8 9 11 9 9 9 10 9 8 8 7 8 8 8 8 7 5 5 6 6 4 2 3 4 5 5 5 3 3 0 1 1 1 1 4 5 3 3 4 4 2 3 3 4 5 4 4 5 5 6 6 6 7 8 8 12 12 11 10 9 9 9 9 9 9 9 9 9 9 9 9 9 9 9 9 9 10 9
8 12 14 15 12 10 9 10 10 11 10 9 7 8 9 9 7 7 7 7 7 7 6 6 5 5 5 4 3 2 4 1 1 1 3 4 1 1 1 1 1 6 4 4 3 4 4 4 2 3 5 4 3 4 5 6 6 6 6 7 8 8 9 8 9 9 9 9 9 9 9 9 9 9 9 9 9 9 9 9 9 9 9 8 8
6 7 13 16 10 11 10 10 11 11 11 11 10 9 6 6 7 7 7 7 7 6 6 5 4 5 4 4 3 4 2 3 3 3 3 3 1 0 2 3 5 5 5 4 6 4 4 3 3 5 4 3 4 5 6 6 6 6 7 7 8 9 9 9 9 10 10 10 10 9 9 9 9 9 8 8 9 8 9 9 9 9 9 8 8
8 9 9 11 13 11 10 10 10 10 10 10 9 8 8 7 7 6 6 6 5 5 4 4 4 2 3 5 7 7 5 4 3 3 3 5 6 6 5 6 6 5 4 5 5 4 4 4 4 4 4 4 5 5 6 6 6 6 7 8 8 9 9 10 10 10 10 10 10 10 9 9 9 9 9 8 9 9 9 9 9 8 8 9 9
11 10 11 10 11 12 11 10 9 11 10 8 7 7 5 6 5 5 5 5 5 5 5 3 3 2 3 8 9 8 4 2 6 6 4 5 7 5 5 5 4 3 5 5 4 5 5 5 4 4 5 6 6 6 6 6 6 7 7 8 9 9 9 9 9 10 10 10 10 10 9 10 10 9 10 9 9 8 8 8 8 8 8 8 7
14 12 12 11 11 11 11 10 10 10 8 8 6 6 6 6 5 6 6 7 6 6 5 5 3 3 3 4 4 7 6 6 6 6 7 7 7 6 5 3 3 4 3 4 4 4 4 5 4 4 5 6 6 7 7 7 7 7 7 8 9 9 10 9 9 9 9 9 10 10 11 10 9 8 8 8 8 8 8 8 8 7 7 7 6
11 10 10 10 9 8 7 7 7 7 6 6 6 6 6 6 6 6 7 6 6 6 6 5 5 4 3 2 3 4 7 7 6 6 7 7 6 6 3 3 5 6 4 3 4 5 5 3 4 6 5 6 7 7 7 7 7 7 7 7 8 9 9 9 9 10 9 9 10 10 9 9 9 8 8 8 7 7 7 7 7 7 6 5 5
10 9 8 8 7 7 7 7 7 7 7 7 6 7 7 7 7 7 7 6 6 5 4 4 4 5 4 4 6 7 7 6 5 5 7 7 5 4 2 3 4 5 5 3 3 4 4 4 4 4 6 6 7 7 7 7 6 6 6 6 7 8 9 10 9 10 10 10 9 9 8 8 8 8 8 7 7 7 6 6 6 5 5 4 4
10 10 10 9 8 8 8 7 7 8 8 7 7 7 7 7 7 7 7 6 6 6 6 5 5 5 6 6 6 6 6 7 7 7 7 6 5 3 3 3 5 4 4 4 3 4 3 3 4 5 6 7 7 7 7 6 6 6 6 5 6 7 8 8 9 9 9 9 8 8 8 8 8 8 8 8 6 6 6 5 5 4 4 3 3
9 8 8 9 9 9 9 9 9 8 8 8 7 8 6 7 7 7 7 7 7 6 6 6 6 6 6 6 6 5 6 7 7 7 6 5 4 4 3 4 5 5 6 5 3 2 3 4 5 5 6 6 7 7 6 6 6 6 6 6 6 8 8 8 9 9 8 8 8 7 8 8 8 7 8 7 6 5 5 5 4 5 4 3 2
9 9 9 9 9 9 9 8 9 9 8 8 8 7 7 7 7 7 6 7 7 7 7 6 6 7 7 6 6 6 7 8 7 6 5 5 4 4 4 4 5 5 5 5 5 5 5 4 5 6 6 6 6 6 6 7 6 7 7 7 7 9 12 13 9 8 8 8 7 7 8 8 7 7 7 7 6 5 5 5 5 4 3 2 1
9 9 9 9 8 8 8 8 8 8 8 7 8 9 8 8 8 7 7 8 8 7 6 6 7 6 6 6 6 6 7 7 6 5 5 4 4 4 4 4 5 5 5 5 5 5 5 6 5 6 6 6 4 5 7 7 8 7 8 7 11 18 17 17 11 9 11 8 7 7 7 7 8 8 7 7 7 5 4 4 4 4 3 3 3
9 9 9 9 9 8 8 8 8 8 8 8 8 8 8 7 8 7 7 8 7 7 7 7 6 6 6 6 6 6 7 6 6 5 5 5 5 5 5 5 4 4 4 4 5 5 6 6 6 7 6 4 4 5 7 7 7 8 8 10 16 18 17 17 15 15 11 7 8 7 7 7 8 7 7 6 6 6 5 5 4 4 4 4 4
9 9 8 8 8 8 8 8 9 8 8 8 7 7 7 7 7 7 7 7 7 6 6 6 6 6 6 5 5 6 6 6 5 5 5 5 5 4 3 3 4 4 4 5 6 6 6 6 7 7 5 3 5 7 8 8 7 9 12 15 16 18 18 16 11 13 16 10 7 7 7 7 7 8 7 7 6 6 6 5 5 4 4 4 4
Wind_Direction
136 166 152 193 168 153 160 148 142 133 130 144 142 139 137 132 145 153 135 144 143 149 148 154 154 164 153 159 166 170 172 193 168 163 123 180 150 155 187 159 159 170 164 205 209 120 114 169 201 101 73 57 14 13 9 10 43 354 5 25 352 338 57 45 338 300 304 324 349 331 329 339 334 347 346 344 341 336 334 327 323 313 304 294 295
125 138 113 6 140 97 82 78 90 90 84 85 115 128 123 106 107 86 97 130 155 157 164 160 161 162 172 169 175 179 179 177 179 156 162 157 204 152 196 193 185 176 160 164 150 125 98 75 89 99 90 71 16 359 344 358 30 51 38 60 52 357 326 71 207 249 299 322 333 321 317 348 332 336 339 334 326 325 323 317 308 293 281 280 279
163 155 144 135 116 101 92 87 78 63 67 60 68 62 59 63 69 78 68 58 95 162 169 166 162 166 174 183 179 183 185 182 179 164 175 166 195 186 189 198 191 171 180 180 180 153 134 149 194 182 111 59 329 321 353 353 30 52 35 39 42 36 28 38 35 350 322 296 293 323 318 327 323 314 315 306 301 303 304 305 303 302 295 289 290
55 32 39 44 58 84 85 95 85 87 79 88 98 114 111 90 89 92 105 116 107 108 114 91 89 150 180 190 189 184 186 185 182 178 178 181 187 186 191 194 189 174 188 184 174 170 174 183 212 152 132 148 301 327 6 38 43 32 31 17 43 29 16 38 72 126 278 329 296 307 305 321 307 306 306 308 304 303 297 297 299 299 295 291 286
101 101 96 97 61 91 126 282 146 147 147 143 139 156 146 124 114 113 98 36 4 32 86 110 115 153 189 197 195 185 185 185 184 186 188 184 183 180 184 188 187 180 189 198 168 175 179 182 222 179 128 113 292 36 39 49 40 46 35 11 19 13 16 11 4 27 21 333 305 301 317 308 295 304 304 307 307 305 309 303 297 299 310 320 339
104 102 99 87 80 93 90 85 39 59 63 72 132 144 133 129 131 130 134 142 176 231 180 178 180 216 205 181 194 194 136 111 140 210 202 188 181 178 179 180 186 177 188 186 153 160 163 185 156 137 119 148 178 101 52 57 45 43 34 19 16 20 13 360 4 3 0 315 306 312 327 307 318 308 301 305 309 309 311 310 323 339 350 335 327
99 100 98 102 84 55 83 113 136 157 171 190 208 188 148 147 152 161 168 179 201 214 213 196 233 237 233 198 139 111 132 163 165 176 204 210 185 173 178 180 182 178 185 171 173 153 143 142 140 130 127 125 97 88 91 55 65 57 40 28 17 36 20 11 4 2 351 336 315 300 306 303 305 313 320 333 322 324 330 331 330 322 324 319 312
104 107 109 110 111 122 124 118 107 116 138 163 214 187 159 136 121 155 198 214 219 220 220 213 229 231 237 189 152 150 156 188 210 202 180 190 200 188 181 181 182 182 175 169 166 164 159 147 149 150 122 124 129 130 112 106 68 46 5 59 48 50 33 13 14 2 349 340 319 320 317 313 336 318 326 345 350 344 358 346 327 332 334 330 318
107 112 115 131 162 167 173 178 159 165 158 159 170 200 200 197 191 188 198 219 224 225 225 224 224 226 201 202 200 146 156 180 209 215 205 209 200 205 193 184 179 173 166 166 155 156 151 145 137 125 128 131 136 132 133 148 125 37 331 71 61 69 38 29 14 360 336 328 315 326 325 328 323 336 334 342 354 325 314 350 322 327 328 329 327
140 142 152 170 170 169 173 177 179 166 169 182 208 194 195 201 202 200 208 214 217 214 210 211 214 228 228 207 182 176 182 191 214 217 214 200 194 202 206 193 178 166 159 156 153 156 160 150 137 134 137 141 141 142 136 124 137 158 178 125 110 85 48 360 345 336 326 320 304 316 322 309 312 322 322 313 317 330 347 351 339 326 335 328 309
117 137 181 191 187 186 168 188 181 176 192 206 229 222 212 214 208 214 220 216 223 218 201 204 216 220 215 211 207 202 199 202 209 217 222 206 193 189 187 193 173 165 159 158 160 167 165 155 142 144 145 150 145 147 155 162 186 202 198 182 170 160 132 344 321 320 315 300 295 311 294 292 291 300 305 307 314 331 319 322 315 334 346 344 318
90 119 158 149 180 152 175 181 184 206 209 223 230 240 246 232 231 235 226 232 239 239 230 226 225 224 218 219 220 219 213 216 210 213 218 218 209 194 183 179 174 169 169 166 164 161 165 148 153 153 162 167 157 161 165 189 205 217 215 209 211 234 249 218 268 308 294 294 299 285 287 280 286 299 295 306 312 320 314 318 318 321 319 316 301
204 217 229 200 209 188 193 27 345 351 34 108 129 119 113 103 105 164 209 223 227 212 218 221 228 220 210 216 229 222 227 230 219 218 221 223 217 194 182 179 173 170 165 158 153 155 162 153 156 175 173 179 167 167 177 216 232 233 230 234 260 225 235 244 232 231 264 276 277 281 270 279 290 282 268 290 308 306 306 301 300 298 290 291 288
168 192 214 171 135 118 115 109 75 92 88 64 56 37 37 1 313 308 330 349 175 194 202 209 218 213 204 204 219 217 211 244 239 233 228 223 214 187 165 157 145 145 148 151 151 160 166 171 158 173 188 187 178 175 195 213 227 220 218 224 231 246 245 243 245 246 241 241 252 264 271 259 270 277 282 289 295 290 295 286 278 288 288 282 285
262 203 144 290 338 73 93 138 128 117 76 68 50 36 24 360 347 328 335 322 308 284 262 226 218 202 177 178 183 198 243 95 181 160 157 164 156 136 109 102 100 96 105 113 106 127 124 125 128 139 154 180 181 189 197 213 200 200 199 217 218 227 221 222 217 222 235 223 227 245 262 269 269 277 286 290 279 277 276 276 277 279 283 287 284
287 193 190 226 236 258 216 176 139 98 89 70 62 15 348 320 320 310 343 331 328 319 303 193 230 247 226 116 120 148 78 78 111 118 121 119 110 108 110 106 99 94 96 114 128 117 114 118 123 152 170 169 188 200 210 185 164 179 195 211 223 233 232 233 230 230 233 240 248 259 274 287 297 293 295 299 303 301 303 298 303 299 299 297 292
261 258 209 208 220 254 234 154 138 142 133 130 177 242 328 335 324 318 341 318 314 306 273 245 190 191 130 120 131 122 62 66 110 123 120 114 107 102 108 104 113 125 134 126 120 121 118 135 141 178 191 216 205 199 225 188 192 217 271 289 291 291 281 302 303 324 2 11 360 327 293 280 282 282 282 279 267 272 288 302 288 288 289 291 286
289 278 262 245 218 212 199 182 177 181 164 175 201 228 243 345 296 267 285 288 295 278 271 270 326 115 133 149 142 126 103 80 104 112 104 95 101 110 111 112 113 111 98 103 125 148 181 266 251 145 77 50 68 65 50 55 60 44 37 9 351 340 321 344 2 345 342 338 336 330 326 322 318 315 309 304 305 310 307 287 286 291 277 271 284
285 271 259 224 98 96 99 109 144 141 146 197 190 241 253 248 244 293 302 296 285 293 295 246 62 54 113 130 138 128 120 110 112 105 102 105 104 105 107 105 103 101 104 92 47 61 59 50 63 73 85 89 77 70 67 71 77 72 52 23 329 311 279 326 339 329 328 326 322 324 316 312 306 298 296 296 294 288 270 268 264 250 268 268 273
269 285 286 284 285 293 310 280 238 215 216 228 227 220 218 194 246 309 299 300 306 342 28 93 95 73 95 124 126 132 126 118 112 104 100 95 99 96 95 97 92 80 67 77 77 70 74 68 74 94 93 91 88 82 78 85 98 85 59 325 281 280 273 314 300 296 285 280 284 285 283 280 282 281 281 282 281 273 273 267 259 248 262 269 263
270 268 268 264 253 243 244 225 232 237 221 216 213 214 195 189 207 341 320 316 5 58 82 91 92 76 65 83 118 135 136 127 115 103 93 95 97 99 95 101 113 109 98 77 72 83 91 85 93 103 110 111 117 126 125 130 172 201 218 236 228 251 286 292 280 275 272 272 273 275 271 268 265 269 269 272 272 272 268 264 258 250 253 266 268
241 253 256 254 253 253 251 255 226 223 220 198 188 197 197 170 166 177 342 34 71 94 84 83 88 81 68 75 88 103 100 114 124 102 97 91 91 94 93 97 114 106 87 71 57 53 95 123 108 129 131 140 146 168 204 218 224 212 238 235 252 261 265 258 264 273 275 273 268 266 263 261 262 265 269 266 267 269 268 266 265 261 249 248 259
228 233 242 250 254 253 256 254 256 248 247 215 191 203 208 188 190 124 174 86 105 106 102 102 98 90 78 66 72 84 98 96 106 105 100 99 97 97 105 105 81 83 94 82 65 47 77 115 119 145 160 166 187 206 222 234 229 230 244 256 260 265 272 270 268 272 267 264 264 263 260 258 261 260 259 261 258 258 262 263 266 267 272 271 271
242 249 257 257 263 268 257 257 259 267 257 245 220 213 215 198 185 183 125 120 124 115 116 115 105 109 110 99 91 98 93 97 98 112 113 108 103 103 100 93 87 88 81 75 56 53 66 77 155 210 208 222 237 235 237 237 239 253 258 261 263 268 263 264 266 260 263 267 265 261 258 253 256 261 256 253 257 255 256 256 257 262 271 278 282
241 248 254 258 259 259 258 250 248 250 247 230 225 219 219 194 167 136 129 131 132 132 139 135 132 135 132 135 138 133 121 103 100 79 78 83 75 66 59 57 49 49 60 53 48 33 8 171 194 212 230 254 279 301 307 300 288 288 291 283 280 261 253 253 261 266 268 265 263 266 267 263 257 259 265 267 266 265 267 267 265 264 263 263 264
246 232 228 226 233 236 241 248 241 239 246 243 234 213 186 159 151 155 133 138 140 139 145 136 138 138 138 144 146 144 133 121 104 87 75 84 80 77 73 71 70 65 71 55 33 16 8 352 343 335 326 321 325 314 294 283 304 308 295 293 287 272 269 277 283 280 278 280 283 282 278 277 271 266 268 275 278 278 276 277 278 273 273 276 277
265 246 242 255 260 245 230 247 260 263 280 327 95 113 122 118 117 123 124 136 144 145 140 140 143 146 148 149 143 138 137 138 127 108 118 93 80 83 77 80 96 83 74 43 21 360 347 344 322 316 311 309 306 282 270 290 306 310 329 313 300 313 325 327 311 305 301 302 299 294 293 293 298 308 304 302 293 291 287 291 290 288 286 282 281
276 268 247 221 219 238 251 240 249 181 51 75 73 56 61 115 135 151 160 152 147 153 153 157 162 165 160 154 138 131 137 128 127 138 126 113 100 91 81 82 83 93 77 37 13 343 331 323 344 13 24 40 27 22 23 12 347 293 298 312 328 324 318 312 308 295 289 286 290 295 297 300 300 290 292 291 286 286 287 285 284 285 282 285 279
269 272 266 249 241 226 234 247 230 129 115 85 67 50 40 49 107 117 30 192 162 160 171 170 166 160 145 146 135 125 130 138 139 87 108 113 125 114 105 112 114 96 114 94 28 357 17 18 24 12 35 33 25 10 359 353 340 332 329 321 315 303 294 293 294 290 286 293 293 296 298 301 297 293 288 288 284 284 284 284 280 281 282 275 274
269 253 249 256 252 243 244 250 153 139 138 131 116 85 53 55 41 113 118 7 154 154 150 160 159 140 114 75 141 150 151 138 133 113 106 109 115 120 122 126 124 127 142 192 151 72 38 39 359 33 33 27 23 4 342 335 329 328 319 308 308 309 304 299 293 292 295 291 291 293 292 293 290 289 287 284 285 278 273 272 281 279 279 274 274
270 262 245 239 233 218 203 133 121 134 137 134 121 114 87 39 36 37 65 95 101 97 104 118 125 125 122 107 61 91 115 126 126 118 121 124 130 135 137 126 114 110 104 77 46 59 41 28 358 34 22 37 16 342 337 340 329 325 317 315 306 304 303 299 291 291 292 291 289 285 284 282 281 281 281 281 281 283 282 274 270 271 267 270 269
249 252 249 242 233 229 198 144 145 134 137 131 128 123 106 92 49 33 39 70 83 92 101 106 112 115 119 123 124 100 113 132 137 137 133 128 120 110 100 95 98 91 48 56 73 47 78 121 73 33 39 31 345 343 340 335 320 312 310 316 312 306 308 307 303 301 297 295 291 289 286 284 282 281 280 280 280 278 276 276 271 268 265 260 259
266 252 244 241 235 224 165 144 152 145 145 141 136 132 124 122 109 90 45 49 65 80 94 102 105 108 106 113 125 139 150 153 144 132 128 122 115 110 113 125 130 123 98 53 63 20 3 97 96 38 56 26 351 341 324 308 308 310 308 303 302 300 298 298 303 299 296 291 290 287 284 283 280 280 279 277 276 276 274 272 269 266 264 266 263
264 265 265 253 237 198 149 151 148 158 153 149 145 137 134 128 131 127 116 103 67 50 45 84 111 112 116 127 132 134 140 145 145 132 123 122 122 127 128 177 181 171 156 152 91 289 358 77 53 47 35 31 359 337 329 316 306 301 299 293 287 294 299 304 306 300 296 292 288 283 281 279 279 281 280 277 272 271 272 269 268 266 265 260 264
250 241 238 245 241 188 162 154 150 140 143 146 141 137 134 137 136 133 132 127 122 120 123 70 67 119 130 128 135 134 134 130 121 120 117 119 129 156 136 64 6 37 121 142 188 227 198 153 83 40 60 21 333 326 313 308 312 313 310 306 308 309 308 307 302 298 294 291 288 286 284 283 281 277 276 277 276 274 271 271 267 263 265 266 262
240 242 249 238 214 182 157 146 145 148 148 138 124 122 125 126 121 124 121 119 122 128 118 109 101 48 81 98 107 106 109 111 111 110 127 128 115 103 76 32 45 66 164 208 185 202 146 103 91 42 33 348 318 327 326 331 317 307 300 301 303 304 305 304 300 298 294 290 286 286 286 282 279 277 275 270 270 270 270 269 268 266 263 263 262
229 230 234 204 156 132 135 126 122 118 107 116 118 114 114 115 121 124 125 124 124 120 119 115 97 75 56 61 93 106 94 95 94 99 88 118 102 74 85 218 138 133 120 125 115 93 76 73 85 60 360 0 345 333 330 317 310 301 299 296 295 301 300 299 298 296 294 292 289 288 286 284 282 279 277 277 274 271 269 268 267 266 263 262 261
208 204 189 151 134 135 119 110 111 111 117 123 125 124 118 119 125 127 126 125 124 121 122 125 131 143 151 171 128 118 101 65 47 33 37 57 8 318 322 268 205 133 119 116 112 101 90 72 56 35 3 360 340 325 317 308 302 300 299 302 303 299 301 300 296 291 287 287 288 287 287 285 282 280 277 275 274 275 273 270 270 269 266 258 254
198 175 155 147 138 133 127 125 123 121 121 115 109 113 124 133 134 128 124 124 123 124 128 140 151 154 154 145 119 81 79 68 81 248 272 271 274 166 209 275 135 92 101 102 94 79 77 54 25 25 8 339 330 319 310 298 297 296 300 304 304 304 303 301 300 299 297 293 293 290 288 286 284 281 278 276 274 272 272 271 267 265 265 263 256
150 137 141 131 122 126 127 129 131 132 132 127 130 127 127 135 130 130 133 131 132 136 137 143 160 167 158 126 136 114 129 211 225 230 241 255 226 90 96 111 91 96 92 81 81 85 77 48 29 18 344 328 317 307 299 294 293 293 298 300 306 307 305 304 303 304 302 300 296 294 292 288 286 284 280 275 274 273 273 272 269 266 266 265 264
107 115 110 113 116 117 113 117 123 126 123 122 129 134 136 131 129 131 127 122 123 122 132 141 155 180 168 166 153 153 174 215 205 167 142 117 104 112 113 93 98 88 93 93 93 85 75 55 22 2 326 314 301 300 296 294 294 296 303 306 309 307 308 307 305 303 301 300 297 296 295 291 289 287 284 280 277 277 275 272 270 268 264 263 261
92 94 97 101 106 109 110 106 111 110 112 117 121 127 130 138 132 123 111 111 115 120 123 135 157 161 155 142 149 176 176 138 110 122 122 91 93 88 88 83 80 95 93 104 92 77 66 47 17 332 311 306 300 298 296 297 296 301 306 310 312 313 311 309 306 303 302 301 299 297 296 295 291 286 281 280 279 277 275 271 269 267 264 260 257
74 79 81 86 89 96 105 112 114 118 127 137 149 143 135 125 120 113 113 121 126 130 133 142 159 148 136 134 168 179 143 116 104 93 84 86 82 78 73 78 67 63 92 105 100 102 76 43 343 304 303 298 299 294 295 296 300 302 302 305 311 313 310 307 307 305 303 301 300 298 298 295 293 288 284 281 276 274 269 271 272 268 265 257 253
90 90 92 96 99 99 93 99 109 118 129 116 108 104 109 107 111 119 124 126 131 139 143 153 145 125 116 160 156 105 92 100 99 107 108 104 99 95 102 86 59 48 47 75 86 78 61 15 320 307 303 305 302 299 290 288 293 296 296 302 308 311 310 310 309 308 307 303 301 300 298 295 293 290 287 283 281 277 277 274 270 269 265 257 240
59 65 75 84 83 88 88 89 96 100 98 91 84 83 84 86 95 107 118 124 122 118 118 122 124 142 143 110 86 87 94 99 107 95 83 87 94 107 94 64 63 57 41 25 51 57 42 2 327 316 309 307 308 305 298 293 296 294 291 294 304 309 313 312 309 306 304 301 301 302 302 301 299 299 297 293 287 282 280 278 277 278 276 260 243
68 70 70 71 74 77 80 84 83 82 81 82 85 78 76 78 81 89 97 104 108 112 108 102 97 80 79 89 91 88 89 86 83 87 89 87 89 84 68 61 53 48 34 15 5 57 22 333 325 312 309 309 313 313 309 303 307 307 306 300 301 302 304 306 306 305 302 304 305 305 306 306 305 303 301 299 294 291 286 284 283 281 278 284 275
70 77 77 79 75 74 69 68 69 73 75 74 78 81 82 80 82 84 87 92 96 95 89 88 77 72 69 76 83 76 71 76 83 81 86 87 78 67 57 52 40 30 17 8 339 1 8 329 316 308 306 307 317 319 314 315 319 322 321 317 310 316 317 318 315 310 308 310 308 308 310 311 309 309 308 309 308 307 307 301 305 302 300 291 288
60 60 60 64 67 68 66 67 69 69 71 68 67 64 65 64 68 68 70 75 79 84 86 81 74 69 67 61 59 64 67 75 80 82 80 80 77 61 47 42 34 22 12 5 348 338 338 328 314 312 315 323 329 328 322 327 334 333 328 323 321 323 324 327 323 319 319 321 321 319 318 316 315 313 315 320 326 328 331 333 328 331 360 342 337
58 59 60 58 63 64 67 68 67 68 67 66 64 59 56 57 56 54 56 58 59 57 56 61 64 71 70 63 59 62 68 72 77 79 82 77 73 58 45 34 27 17 9 352 340 328 319 320 320 320 324 333 341 337 338 342 340 338 332 327 328 329 331 334 333 326 328 329 331 330 327 325 323 322 326 331 335 340 349 350 354 352 5 15 38
56 55 58 55 56 54 54 58 63 65 62 62 63 63 58 58 54 53 55 56 54 51 48 51 53 56 64 58 54 54 59 61 58 64 71 67 62 55 37 21 13 359 355 345 328 319 324 331 329 325 331 349 356 352 351 346 343 335 332 329 330 333 334 336 333 331 336 339 336 335 333 332 329 326 333 341 343 349 2 8 4 12 22 35 39
47 51 57 59 59 58 59 62 60 59 58 59 60 62 62 59 59 57 57 57 58 55 55 50 50 49 50 52 55 57 58 56 50 48 62 60 54 50 39 11 353 351 348 343 335 338 334 329 328 328 338 9 9 5 356 346 343 337 330 331 338 340 338 336 335 332 334 340 343 345 343 340 341 341 345 349 348 352 358 7 20 25 37 37 37